Regional Weather Roundup
Issued by NWS

Home | Current Version | Previous Version | Graphics & Text | Print | Product List | Glossary On
Versions: 1 2 3 4 5 6 7 8 9 10 11 12 13 14 15 16 17 18 19 20 21 22 23 24 25 26 27 28 29 30 31 32 33 34 35 36 37 38 39 40 41 42 43 44 45 46 47 48 49 50
000
ASUS43 KLOT 031310
RWRIL

ILLINOIS REGIONAL WEATHER ROUNDUP
NATIONAL WEATHER SERVICE CHICAGO/ROMEOVILLE IL
700 AM CST TUE MAR 03 2015

NOTE: "FAIR" INDICATES FEW OR NO CLOUDS BELOW 12,000 FEET WITH NO
SIGNIFICANT WEATHER AND/OR OBSTRUCTIONS TO VISIBILITY.

* THESE STATIONS ARE NOT UNDER NWS QUALITY CONTROL. THEY ALSO MAY NOT
  REPORT WEATHER SUCH AS PRECIPITATION OR FOG.

ILZ001-002-007-009-015-016-024-031400-
NORTHWEST ILLINOIS

CITY           SKY/WX    TMP DP  RH WIND       PRES   REMARKS
MOLINE         FRZ RAIN  29  26  89 S15G25    29.77F FOG     WCI  18
STERLING*      CLOUDY    30  27  86 S7        29.85R WCI  23
SAVANNA*       LGT SNOW  30  28  90 S15       29.81F WCI  19
$$

ILZ003-004-008-010-011-017-018-031400-
NORTH CENTRAL ILLINOIS

CITY           SKY/WX    TMP DP  RH WIND       PRES   REMARKS
ROCKFORD       FRZ RAIN  29  25  85 S20       29.84F FOG     WCI  16
FREEPORT*      LGT SNOW  26  24  94 SE13      29.82F VSB 1   WCI  15
ROCHELLE*      DRIZZLE   28  27  96 S13       29.83F WCI  18
DE KALB*       MIX PCPN  26  25  95 SE18G25   29.84F WCI  13
PERU*          DRIZZLE   29  28  93 SE18      29.84F WCI  17
$$

ILZ005-006-012>014-019>023-031400-
NORTHEAST ILLINOIS

CITY           SKY/WX    TMP DP  RH WIND       PRES   REMARKS
CHICAGO-OHARE  FRZ DRZL  25  23  92 SE14      29.89F FOG     WCI  13
CHICAGO-MIDWAY FRZ DRZL  28  24  85 SE14      29.91F FOG     WCI  17
AURORA         CLOUDY    28  24  85 SE17      29.89F FOG     WCI  16
LANSING*       MIX PCPN  27  24  91 S13G20    29.94F WCI  16
JOLIET*        DRIZZLE   28  26  91 SE12G20   29.91F WCI  18
WAUKEGAN       LGT SNOW  26  25  96 SE17      29.87F FOG     WCI  13
DUPAGE AIRPORT FRZ RAIN  27  24  89 S14       29.88F FOG     WCI  16
KANKAKEE*      MIX PCPN  29  28  93 SE12G20   29.93F WCI  20
WHEELING       FRZ RAIN  27  24  89 S12       29.91F FOG     WCI  17
MORRIS*        CLOUDY    28  27  93 S16       29.90F FOG     WCI  17
ROMEOVILLE*    CLOUDY    28  26  94 S17       29.90F FOG     WCI  15
NORTHERLY ISL    N/A     27  24  89 SE15        N/A  WCI  15
$$

LMZ740>746-031400-
SOUTHERN LAKE MICHIGAN

STATION/POSITION SKY/WX   TEMP    WIND        PRES    VSBY  WAVE
                          AIR SEA DIR/SP/G                  HT/PER
                          (F)     (DEG/KT/KT) (MB)    (MI)  (FT/S)
WAUKEGAN HARBOR            27        CALM       N/A
HARRISON CRIB              27     150/ 21/ 30   N/A
BURNHAM HARBOR             27     130/ 14/ 19   N/A
CALUMET HARBOR                                1012.5F
MICHIGAN CITY              26     130/ 13/ 17   N/A
$$

ILZ025>027-034>036-040-047-049-050-058-095>099-031400-
WEST-CENTRAL ILLINOIS

CITY           SKY/WX    TMP DP  RH WIND       PRES   REMARKS
QUINCY         CLOUDY    30  27  88 S13       29.79F FOG     WCI  20
GALESBURG*     MIX PCPN  28  28  97 SE10      29.81F WCI  19
MACOMB*        CLOUDY    29  28  98 S13       29.86S FOG     WCI  19
JACKSONVILLE*  CLOUDY    32  28  83 SE10      29.85F HAZE    WCI  24
PITTSFIELD*    CLOUDY    31  28  85 SE9       29.84F WCI  23
$$

ILZ028>032-037-038-041>044-048-051>054-059>061-031400-
CENTRAL ILLINOIS

CITY           SKY/WX    TMP DP  RH WIND       PRES   REMARKS
PONTIAC        CLOUDY    29  28  96 SE13      29.90F FOG     WCI  19
BLOOMINGTON    CLOUDY    28  27  96 S17       29.87F FOG     WCI  16
DECATUR        CLOUDY    30  27  88 S12       29.89F FOG     WCI  20
PEORIA         FRZ RAIN  30  27  88 S16       29.89S FOG     WCI  19
LACON*         MIX PCPN  29  26  91 S10       29.84F WCI  19
LINCOLN*       DRIZZLE   31  29  90 S13       29.91F WCI  21
SPRINGFIELD    CLOUDY    31  26  82 SE15      29.87F WCI  20
TAYLORVILLE    MIX PCPN  32  28  86 S13       29.90F WCI  22
$$

ILZ033-039-045-046-055>057-062-063-031400-
EAST-CENTRAL ILLINOIS

CITY           SKY/WX    TMP DP  RH WIND       PRES   REMARKS
CHAMPAIGN      CLOUDY    28  24  85 SE18      29.92F FOG     WCI  15
DANVILLE*      DRIZZLE   28  24  87 SE16      29.92F WCI  16
RANTOUL*       CLOUDY    30  27  89 SE16      29.93F FOG     WCI  18
MATTOON        FRZ RAIN  30  26  85 SE15      29.92F FOG     WCI  19
PARIS*         MIX PCPN  30  26  85 SE7       29.98F WCI  23
$$

ILZ079-100>102-031400-
SOUTHWEST ILLINOIS

CITY           SKY/WX    TMP DP  RH WIND       PRES   REMARKS
ALTON          DRIZZLE   32  28  86 S13       29.89F FOG     WCI  22
BELLEVILLE     CLOUDY    34  32  93 VRB7      29.90F WCI  28
CAHOKIA*       CLOUDY    35  28  75 S8        29.91F FOG     WCI  29
SPARTA*        CLOUDY    36  32  87 S14G21    29.94F WCI  27
$$

ILZ064>066-069>071-074>076-080>082-084>086-088>090-092>094-031400-
SOUTH-CENTRAL ILLINOIS

CITY           SKY/WX    TMP DP  RH WIND       PRES   REMARKS
CARBONDALE     CLOUDY    37  32  82 S16       29.99F WCI  28
CAIRO*         CLOUDY    38  33  81 S5        30.04F WCI  35
EFFINGHAM*     MIX PCPN  32  26  78 SE9       29.96F WCI  24
MARION         CLOUDY    39  36  87 S17       29.99F WCI  30
MT. VERNON     CLOUDY    36  28  75 S10       29.96F WCI  28
CENTRALIA*     CLOUDY    35  30  82 S14G20    29.92F WCI  25
SALEM*         CLOUDY    38  32  79 S10G16    29.94F WCI  31
METROPOLIS*    CLOUDY    37  35  95 CALM      30.03F
$$

ILZ067-068-072-073-078-083-087-091-031400-
SOUTHEAST ILLINOIS

CITY           SKY/WX    TMP DP  RH WIND       PRES   REMARKS
LAWRENCEVILLE  CLOUDY    34  27  75 SE12      30.00F HAZE    WCI  25
FLORA*         DRIZZLE   33  28  82 S12       29.97F WCI  25
FAIRFIELD*     RAIN      35  30  82 SE9       29.97F WCI  27
HARRISBURG*    CLOUDY    37  34  87 S8        30.01F WCI  31
ROBINSON*      CLOUDY    32  26  76 SE8       30.01F WCI  25
CARMI*         CLOUDY    35  33  92 SE9       30.00F WCI  28
$$

ABBREVIATIONS USED IN REMARKS
   TC - TEMPERATURE IN CELSIUS
  WCI - WIND CHILL INDEX
   HX - HEAT INDEX
  VSB - VISIBILITY
$$



USA.gov is the U.S. government's official web portal to all federal, state and local government web resources and services.